Location: Bartshausen
(51.8454°N, 9.8167°E)
Time: 23:42:51
(UTC+00:00)

ACS3 Solar Sail - Pass Details

Date: 08 November 2025
Orbit: 890 x 1003 km, 97.3° (Epoch: 04 December)

Event Time Altitude Azimuth Distance (km) Brightness Sun altitude
Rises 03:42:30 0° 9° (N) 3,529 4.9 -25.6°
Reaches altitude 10° 03:44:57 10° 5° (N) 2,594 4.1 -25.2°
Enters shadow 03:49:53 47° 311° (NW) 1,200 1.9 -24.5°
